www.pogodaiklimat.ru

Погода и климат >> Архив погоды >> Россия >> Краснодарский край >> Усть-Лабинск


ПОГОДА в Усть-Лабинске

  • Прогноз погоды в Усть-Лабинске
  • Монитор погоды в Усть-Лабинске

АРХИВ ПОГОДЫ в Усть-Лабинске

Время (UTC), дата Ветер
(напр.,м/с)
 
Видим.   Явления Облачность Т
(С)
Тd
(С)
f
(%)
Тe
(С)
Тes
(С)
Комфортность P
(гПа)
Po
(гПа)
Тmin
(С)
Tmax
(С)
R
(мм)
R24
(мм)
S
(см)
00 13.08 СВ 4 10 км ясно +19.7 +9.9 53 +21 +21 комфорт 1017.9 1006.7
03 13.08 СВ 3 10 км ясно +18.8 +9.5 55 +20 +20 1018.1 1006.9 +18.2
06 13.08 В 4 10 км ясно +24.8 +10.3 40 +26 +31 жарко 1018.2 1007.2
09 13.08 В 4 10 км ясно +28.9 +10.6 32 +29 +40 жарко 1017.0 1006.2
12 13.08 СВ 4 10 км ясно +29.9 +9.5 28 +30 +37 жарко 1015.8 1005.0
15 13.08 СВ 4 10 км ясно +28.7 +7.2 26 +28 +29 жарко 1014.8 1004.0 +30.0
18 13.08 СВ 3 10 км ясно +23.5 +5.2 31 +23 +23 комфорт 1015.3 1004.3
21 13.08 В 5 10 км ясно +22.3 +7.1 37 +23 +23 комфорт 1014.8 1003.7
00 14.08 СВ 6 10 км ясно +20.9 +7.7 43 +22 +22 комфорт 1014.5 1003.4
03 14.08 В 5 10 км ясно +20.7 +7.3 42 +22 +22 комфорт 1014.6 1003.5 +20.3
06 14.08 В 6
{11}
10 км ясно +25.6 +7.3 31 +26 +29 жарко 1014.1 1003.1
09 14.08 В 7-11
{11}
10 км ясно +31.0 +6.6 22 +30 +34 жарко 1012.6 1001.8
12 14.08 В 7-11
{13}
10 км ясно +33.3 +6.1 18 +31 +34 жарко 1010.3 999.7
15 14.08 СВ 5
{12}
10 км ясно +32.2 +6.4 20 +30 +31 жарко 1009.6 998.9 +33.5
18 14.08 СВ 5 10 км ясно +27.1 +5.6 25 +26 +26 жарко 1009.7 998.9
21 14.08 СВ 5 10 км ясно +24.2 +3.9 27 +24 +24 комфорт 1008.7 997.7
00 15.08 В 6-11
{11}
10 км ясно +21.4 +3.8 31 +22 +22 комфорт 1007.9 996.9
03 15.08 В 5
{12}
10 км ясно +20.0 +5.1 38 +21 +21 комфорт 1007.9 996.8 +20.0
06 15.08 В 5 10 км ясно +26.6 +9.4 34 +27 +31 жарко 1007.9 997.1
09 15.08 В 3 10 км ясно +32.2 +11.5 28 +32 +45 жарко 1007.0 996.4
12 15.08 ЮВ 2 10 км ясно +35.8 +12.4 24 +36 +46 очень
жарко
1005.3 994.8
15 15.08 В 3 10 км ясно +35.5 +11.6 24 +35 +36 очень
жарко
1004.1 993.6 +37.3
18 15.08 СВ 2 10 км ясно +28.5 +9.8 31 +29 +29 жарко 1005.6 994.8
21 15.08 В 3 10 км 3/0
[Ci fib]
+24.8 +12.2 45 +26 +26 жарко 1005.9 995.1
00 16.08 СВ 1 10 км 3/0
[Cc]
+21.0 +13.5 62 +25 +25 комфорт 1006.5 995.5
03 16.08 ЮВ 2 10 км 10/4 600 м
[Sc Ac As]
+20.7 +14.2 66 +24 +24 комфорт 1006.8 995.7 +20.3
06 16.08 ЮЗ 2 10 км 10/4 600 м
[Cb cap Ac und]
+25.6 +18.5 65 +30 +32 душно 1007.6 996.8 +20.1
09 16.08 ЮЗ 4 10 км 10/3 600 м
[Cb cap Ac trans Ci fib]
+29.3 +19.1 54 +35 +38 очень
душно
1007.4 996.8
12 16.08 СЗ 2 10 км слаб. ливневой дождь 10/8 600 м
[Cb cap Ac und]
+27.0 +19.2 62 +32 +33 очень
душно
1006.3 995.6
15 16.08 СВ 2 10 км {ливн. осадки} 9/3 600 м
[Cb cap Ac trans]
+28.1 +18.8 57 +33 +34 очень
душно
1004.8 994.1 +30.4 0.0
18 16.08 СЗ 3 10 км слаб. ливневой дождь 10/8 600 м
[Cb cap Ac und]
+23.8 +21.0 84 +30 +30 очень
душно
1007.2 996.4
21 16.08 З 1 10 км {ливн. осадки} 8/3 600 м
[Cb cap Ac trans Ci fib]
+21.8 +20.2 91 +28 +28 душно 1006.7 995.8
00 17.08 З 4 10 км гроза, ливневой дождь 10/10 600 м
[Cb cap]
+20.5 +19.9 96 +25 +25 комфорт 1009.3 998.3
03 17.08 штиль 0 10 км в посл. час гроза {ливн. осадки} 10/8 600 м
[Cb cap Ac und]
+19.8 +19.4 98 +23 +23 комфорт 1008.7 997.6 +19.8 10
06 17.08 З 2 10 км {гроза, ливн. осадки} 9/0
[Ac trans]
+21.7 +19.9 90 +27 +31 душно 1009.8 998.7
09 17.08 Ю 2 10 км 8/6 600 м
[Cb cap Ac trans]
+26.4 +19.6 66 +32 +36 очень
душно
1010.1 999.0
12 17.08 СЗ 2 10 км 8/8 600 м
[Cb cap]
+28.5 +19.3 57 +34 +36 очень
душно
1009.8 998.7
15 17.08 Ю 1 10 км 4/4 1000 м
[Cu med, cong]
+27.3 +19.0 61 +33 +33 очень
душно
1009.3 998.5 +28.8
18 17.08 СЗ 2 10 км 6/4 600 м
[Cb cap Ac trans]
+23.2 +20.4 84 +30 +30 очень
душно
1010.6 999.6
21 17.08 СЗ 2 10 км 8/4 600 м
[Cb cap Ac trans]
+21.0 +18.9 88 +26 +26 душно 1010.3 999.2
00 18.08 З 1 10 км 10/6 600 м
[Cb cap Ac As]
+19.8 +18.3 91 +24 +24 комфорт 1010.1 999.0
03 18.08 З 1 10 км 10/4 600 м
[Cb cap Ac und]
+19.7 +18.3 92 +23 +23 комфорт 1010.0 999.0 +19.6
06 18.08 З 1 10 км в посл. час ливневой дождь 10/8 600 м
[Cb cap Ac und]
+20.0 +19.2 95 +24 +25 комфорт 1010.2 999.1
09 18.08 СЗ 2 10 км {ливн. осадки} 10/8 600 м
[Cb cap Ac und]
+21.5 +19.6 89 +27 +27 душно 1010.7 999.6
12 18.08 СЗ 2 10 км {гроза, ливн. осадки} 10/6 600 м
[Cb cap Ac und]
+22.1 +20.4 90 +28 +29 душно 1010.9 999.8
15 18.08 З 1 10 км 6/4 600 м
[Cb cap Ac trans]
+23.4 +20.3 83 +31 +31 очень
душно
1011.0 1000.0 +24.8 2
18 18.08 З 2 4000 м дымка 10/4 600 м
[Cb cap Ac und]
+21.6 +20.5 93 +27 +27 душно 1012.8 1001.7
21 18.08 З 2 4000 м дымка {ливн. осадки} 9/4 600 м
[Cb cap Ac trans]
+20.0 +19.3 96 +24 +24 комфорт 1013.4 1002.3
00 19.08 З 2 4000 м дымка {ливн. осадки} 10/3 600 м
[Cb cap Ac und]
+18.8 +17.4 92 +21 +21 комфорт 1014.5 1003.2
03 19.08 ЮЗ 1 10 км 10/5 600 м
[Cb cap Ac und]
+19.1 +18.1 94 +22 +22 комфорт 1014.8 1003.5 +18.7 0.5
06 19.08 СЗ 1 10 км слаб. ливневой дождь, в посл. час гроза 10/8 600 м
[Cb cap Ac und]
+18.6 +18.2 98 +21 +21 комфорт 1016.3 1005.0 +18.2
09 19.08 ЮВ 2 10 км слаб. ливневой дождь 10/6 600 м
[Cb cap Ac und]
+22.9 +20.6 87 +30 +32 очень
душно
1016.0 1004.9
12 19.08 С 2 10 км {ливн. осадки} 8/4 600 м
[Cb cap Ac trans]
+27.0 +21.8 73 +35 +38 очень
душно
1015.7 1004.8
15 19.08 С 2 10 км ясно +27.8 +21.6 69 +36 +37 очень
душно
1015.5 1004.6 +28.3 4
18 19.08 С 1 10 км ясно +24.5 +21.4 83 +31 +31 очень
душно
1016.1 1005.1
21 19.08 С 1 10 км ясно +22.6 +20.4 87

 

Местоположение метеостанции Усть-Лабинск (Краснодарский край, Россия): широта 45.23 долгота 39.73 высота над уровнем моря 94 м.

В архиве по умолчанию представлена погода в Усть-Лабинске за последнюю неделю. Архивные данные за месяц целиком и за предыдущие месяцы, начиная с января 2011 года, Вы можете получить, выбрав интересующий диапазон дат из раскрывающегося списка и нажав кнопку "Ввод!".


*Определитесь, кто Вы:
робот инопланетянин человек

Внимание! Время в таблицах - всемирное. Для получения местного времени необходимо прибавить поправку, которая равна 3 ч.

Смотрите также архив погоды в соседних городах и на ближайших метеорологических станциях:

Погода в Кореновске (Краснодарский край, Россия) (33 км)
Погода в Белореченске (Краснодарский край, Россия) (55 км)
Погода в Краснодаре (Краснодарский край, Россия) (58 км)
Погода в Дондуковской (Адыгея, Россия) (64 км)
Погода в Кропоткине (Краснодарский край, Россия) (69 км)
Погода в Майкопе (Адыгея, Россия) (73 км)
Погода в Тихорецке (Краснодарский край, Россия) (74 км)
Погода в Тимашевске (Краснодарский край, Россия) (77 км)
Погода в Горячем Ключе (Краснодарский край, Россия) (83 км)
Погода в Шунтуке (Адыгея, Россия) (90 км)

Пояснения к столбцам:

Ветер - указаны скорость ветра в м/с - средняя за 10 мин, порывы в срок и между сроками (в фигурных скобках) и направление, откуда дует ветер: С - северный, СВ - северо-восточный, В - восточный, ЮВ - юго-восточный, Ю - южный, ЮЗ - юго-западный, З - западный, СЗ - северо-западный.
Видимость - горизонтальная дальность видимости в метрах или километрах. При видимости от 1 до 10 км при отсутствии осадков обычно наблюдается дымка, при ухудшении видимости до 1 км и менее - туман. В сухую погоду видимость может ухудшаться дымом, пылью или мглою.
Явления - указаны атмосферные явления, наблюдавшиеся в срок или в последний час перед сроком; фигурными скобками обозначены явления, наблюдавшиеся между сроками (за 1-3 часа до срока); квадратными скобками обозначены град или гололедные отложения с указанием их диаметра в мм.
Облачность - указаны через наклонную черту общая и нижняя облачность в баллах и высота нижней границы облаков в метрах; квадратными скобками обозначены формы облаков: Ci - перистые, Cs - перисто-слоистые, Cc - перисто-кучевые, Ac - высококучевые, As - высокослоистые, Sc - слоисто-кучевые, Ns - слоисто-дождевые, Cu - кучевые, Cb - кучево-дождевые. Подробнее классификацию облаков см. в Атласе облаков (PDF).
T - Температура воздуха - температура, измеренная на высоте 2 м над землей.
Td - Температура точки росы - температура, при понижении до которой содержащийся в воздухе водяной пар достигнет насыщения.
f - Относительная влажность воздуха - влажноcть воздуха, измеренная на высоте 2 м над землей.
Te - Эффективная температура - температура, которую ощущает одетый по сезону человек в тени. Характеристика душности погоды. При расчете учитывается влияние влажности воздуха и скорости ветра на теплоощущения человека.
Tes - Эффективная температура на солнце - температура, которую ощущает человек, с поправкой на солнечный нагрев. Характеристика знойности погоды. Зависит от высоты солнца над горизонтом, облачности и скорости ветра. Ночью, в пасмурную погоду, а также при ветре 12 м/с и более поправка равна нулю.
P - Атмосферное давление - приведенное к уровню моря атмосферное давление.
Po - Атмосферное давление - измеренное на уровне метеостанции атмосферное давление.
Tmin - Минимальная температура - минимум температуры воздуха на высоте 2 м над землей.
Tmax - Максимальная температура - максимум температуры воздуха на высоте 2 м над землей.
R - Количество осадков - Количество выпавших осадков за период времени, мм. При наведении курсора мыши на число - период времени, за который выпало указанное количество осадков.
R24 - Количество осадков - Количество выпавших осадков за 24 часа, мм.
S - Снежный покров - Высота снежного покрова, см. При наведении курсора мыши на число - состояние снежного покрова и степень покрытия местности в баллах.